Location: Brachstadt
(48.6975°N, 10.6755°E)
Time: 07:46:30
(UTC+00:00)

Cosmos 1269 Rocket - Pass Details

Date: 18 September 2020
Orbit: 772 x 780 km, 74.1° (Epoch: 24 October)

Event Time Altitude Azimuth Distance (km) Brightness Sun altitude
Rises 19:33:07 0° 339° (NNW) 3,274 8.0 -21.3°
Reaches altitude 10° 19:35:34 10° 344° (NNW) 2,343 7.1 -21.7°
Maximum altitude 19:40:48 55° 62° (ENE) 932 4.2 -22.4°
Enters shadow 19:41:30 51° 93° (E) 975 4.1 -22.5°
